XIO235 LIML-FMEE

Flight info

Callsign XIO235
Flight time N/A
Altitude 39000
Route LOGDI DCT DIPVO DCT ESODU DCT LUXIL DCT LATAN UM872 PLH UL604 SALUN L604 BRN Z991 NUBAR N321 TIKAT G300 MAV UM665 ANKOR UA665 UVDUK UL441 IXEBU UN304 UVENA UVENA2R
Aircraft GA7C/M-SDE2E3FGHIJ2J5M1P2RWXYZ/LB1D1

Departure

Time 2026-04-30 21:52
Airport Milano Linate Airport (LIML)

Arrival

Time N/A
Airport Roland Garros Airport (FMEE)
Time Latitude Longitude Altitude Speed Heading
2026-04-30 21:39 45.45578 9.27889 361 ft 0 kts 90°
2026-04-30 21:49 45.45578 9.27893 354 ft 3 kts 91°
2026-04-30 21:49 45.45574 9.27956 354 ft 7 kts 105°
2026-04-30 21:50 45.45535 9.27978 354 ft 6 kts 180°
2026-04-30 21:50 45.45497 9.27975 354 ft 5 kts 185°
2026-04-30 21:50 45.45469 9.27954 354 ft 4 kts 221°
2026-04-30 21:50 45.45460 9.27912 355 ft 7 kts 269°
2026-04-30 21:51 45.45458 9.27834 354 ft 8 kts 270°
2026-04-30 21:51 45.45442 9.27768 355 ft 7 kts 234°
2026-04-30 21:51 45.45403 9.27700 356 ft 14 kts 246°
2026-04-30 21:51 45.45361 9.27614 354 ft 10 kts 178°
2026-04-30 21:52 45.45225 9.27632 354 ft 46 kts 175°
2026-04-30 21:52 45.44671 9.27685 360 ft 113 kts 178°
2026-04-30 21:52 45.43703 9.27803 416 ft 159 kts 176°
2026-04-30 21:52 45.42581 9.27887 1080 ft 171 kts 175°
2026-04-30 21:53 45.41294 9.27966 1470 ft 209 kts 173°
2026-04-30 21:53 45.39665 9.28198 1636 ft 243 kts 171°
2026-04-30 21:53 45.38015 9.28398 2863 ft 236 kts 173°
2026-04-30 21:53 45.36372 9.28569 4191 ft 237 kts 173°
2026-04-30 21:54 45.34710 9.28761 5288 ft 247 kts 174°
2026-04-30 21:54 45.32969 9.28955 6363 ft 252 kts 174°
2026-04-30 21:54 45.31183 9.29142 7268 ft 267 kts 174°
2026-04-30 21:54 45.29255 9.29353 8031 ft 284 kts 174°
2026-04-30 21:55 45.27290 9.29584 9262 ft 284 kts 172°
2026-04-30 21:55 45.25404 9.30393 10264 ft 291 kts 154°
2026-04-30 21:55 45.23675 9.31909 11231 ft 294 kts 138°
2026-04-30 21:55 45.22285 9.34049 12186 ft 296 kts 122°
2026-04-30 21:56 45.21345 9.36640 13153 ft 297 kts 105°
2026-04-30 21:56 45.20924 9.39500 14099 ft 300 kts 91°
2026-04-30 21:56 45.21003 9.42559 14441 ft 323 kts 81°
2026-04-30 21:56 45.20931 9.45816 14738 ft 356 kts 96°
2026-04-30 21:57 45.20255 9.49353 15678 ft 367 kts 107°
2026-04-30 21:57 45.19092 9.52621 16809 ft 379 kts 120°
2026-04-30 21:57 45.17220 9.55348 17820 ft 395 kts 140°
2026-04-30 21:57 45.14773 9.57261 18762 ft 408 kts 150°
2026-04-30 21:58 45.12174 9.58976 19687 ft 414 kts 152°
2026-04-30 21:58 45.09617 9.60888 20540 ft 417 kts 142°
2026-04-30 21:58 45.07342 9.63438 21459 ft 419 kts 133°
2026-04-30 21:58 45.05343 9.66483 22162 ft 425 kts 126°
2026-04-30 21:59 45.03383 9.69582 23096 ft 431 kts 128°
2026-04-30 21:59 45.01338 9.72743 23945 ft 438 kts 128°
2026-04-30 21:59 44.99291 9.75964 24701 ft 443 kts 127°
2026-04-30 22:00 44.95126 9.82532 26206 ft 455 kts 128°
2026-04-30 22:00 44.90818 9.89262 27630 ft 467 kts 128°
2026-04-30 22:00 44.88630 9.92689 28354 ft 473 kts 129°
2026-04-30 22:01 44.86409 9.96154 29114 ft 479 kts 128°
2026-04-30 22:01 44.84157 9.99663 29841 ft 484 kts 129°
2026-04-30 22:01 44.81882 10.03207 30544 ft 490 kts 129°
2026-04-30 22:01 44.79612 10.06734 31164 ft 494 kts 129°
2026-04-30 22:02 44.77292 10.10337 31817 ft 498 kts 129°
2026-04-30 22:02 44.74956 10.13960 32431 ft 503 kts 129°
2026-04-30 22:02 44.72593 10.17622 32978 ft 509 kts 129°
2026-04-30 22:02 44.70321 10.21480 33332 ft 513 kts 122°
2026-04-30 22:03 44.68238 10.25574 34025 ft 515 kts 122°
2026-04-30 22:03 44.66081 10.29640 34511 ft 521 kts 124°
2026-04-30 22:03 44.63896 10.33728 34950 ft 525 kts 123°
2026-04-30 22:03 44.61758 10.37840 35784 ft 517 kts 123°
2026-04-30 22:04 44.59642 10.41921 36363 ft 518 kts 123°
2026-04-30 22:04 44.57493 10.45990 36833 ft 520 kts 124°
2026-04-30 22:04 44.53530 10.53479 37791 ft 521 kts 124°
2026-04-30 22:05 44.51383 10.57568 38312 ft 521 kts 124°
2026-04-30 22:05 44.49220 10.61662 38662 ft 525 kts 124°
2026-04-30 22:05 44.47034 10.65772 39019 ft 526 kts 124°
2026-04-30 22:05 44.44853 10.69882 39330 ft 529 kts 124°
2026-04-30 22:06 44.42644 10.74054 39314 ft 538 kts 124°
2026-04-30 22:06 44.38094 10.82599 39331 ft 556 kts 125°
2026-04-30 22:06 44.35763 10.86965 39331 ft 562 kts 125°
2026-04-30 22:07 44.31126 10.95639 39326 ft 559 kts 125°
2026-04-30 22:07 44.26467 11.04327 39326 ft 559 kts 125°
2026-04-30 22:08 44.21789 11.13024 39330 ft 560 kts 125°
2026-04-30 22:08 44.17110 11.21697 39328 ft 559 kts 125°
2026-04-30 22:09 44.12415 11.30373 39339 ft 560 kts 125°
2026-04-30 22:09 44.07736 11.38997 39325 ft 564 kts 125°
2026-04-30 22:10 44.03001 11.47691 39323 ft 563 kts 125°
2026-04-30 22:10 43.98275 11.56350 39320 ft 562 kts 125°
2026-04-30 22:11 43.91162 11.69328 39337 ft 563 kts 126°
2026-04-30 22:12 43.86399 11.77990 39334 ft 566 kts 126°
2026-04-30 22:12 43.81615 11.86659 39332 ft 565 kts 126°
2026-04-30 22:13 43.76837 11.95296 39330 ft 564 kts 126°
2026-04-30 22:13 43.72064 12.03897 39321 ft 564 kts 126°
2026-04-30 22:14 43.67297 12.12460 39332 ft 568 kts 126°
2026-04-30 22:14 43.62482 12.21097 39327 ft 566 kts 125°
2026-04-30 22:15 43.57793 12.29829 39328 ft 567 kts 125°
2026-04-30 22:15 43.53068 12.38539 39322 ft 567 kts 126°
2026-04-30 22:16 43.49158 12.45790 39319 ft 568 kts 126°
2026-04-30 22:17 43.39669 12.63230 39304 ft 568 kts 126°
2026-04-30 22:17 43.32528 12.76286 39295 ft 569 kts 126°
2026-04-30 22:18 43.25367 12.89328 39298 ft 571 kts 127°
2026-04-30 22:19 43.18209 13.02309 39313 ft 570 kts 127°
2026-04-30 22:20 43.11004 13.15314 39338 ft 572 kts 127°
2026-04-30 22:20 43.03789 13.28282 39318 ft 571 kts 127°
2026-04-30 22:21 42.98943 13.36961 39324 ft 575 kts 127°
2026-04-30 22:21 42.94089 13.45630 39324 ft 573 kts 127°
2026-04-30 22:22 42.89234 13.54273 39330 ft 574 kts 128°
2026-04-30 22:22 42.84365 13.62914 39333 ft 574 kts 128°
2026-04-30 22:23 42.79498 13.71531 39319 ft 574 kts 128°
2026-04-30 22:23 42.74601 13.80173 39319 ft 578 kts 128°
2026-04-30 22:24 42.69687 13.88822 39313 ft 577 kts 128°
2026-04-30 22:24 42.64763 13.97461 39301 ft 579 kts 128°
2026-04-30 22:25 42.59864 14.06034 39305 ft 578 kts 128°
2026-04-30 22:25 42.54898 14.14694 39287 ft 578 kts 128°
2026-04-30 22:26 42.47481 14.27589 39299 ft 580 kts 128°
2026-04-30 22:27 42.42452 14.36120 39288 ft 578 kts 130°
2026-04-30 22:27 42.34722 14.48712 39285 ft 579 kts 130°
2026-04-30 22:28 42.27009 14.61196 39258 ft 580 kts 130°
2026-04-30 22:29 42.16605 14.77976 39252 ft 582 kts 131°
2026-04-30 22:31 41.98345 15.07195 39237 ft 584 kts 131°
2026-04-30 22:32 41.85257 15.27963 39222 ft 584 kts 131°
2026-04-30 22:33 41.72102 15.48695 39221 ft 583 kts 131°
2026-04-30 22:35 41.58944 15.69287 39213 ft 585 kts 132°
2026-04-30 22:36 41.45706 15.89863 39217 ft 587 kts 132°
2026-04-30 22:37 41.35055 16.06315 39213 ft 586 kts 132°
2026-04-30 22:38 41.26156 16.19995 39210 ft 585 kts 132°